KG7BDA Weather Reports


time (UTC)temp
C
wind
direction
speed
KPH
gust
KPH
rain 1hr
cm
rain 24hr
cm
rain mn
cm
humidity
%
barometer
mb
20260505124520 9 95 8.0 12.9 0.00 0.00 0.00 64 1009.3
20260505123919 11 129 8.0 12.9 0.00 0.00 0.00 63 1009.2
20260505123320 10 141 8.0 12.9 0.00 0.00 0.00 64 1009.1
20260505122719 10 143 6.4 14.5 0.00 0.00 0.00 65 1009.1
20260505122119 10 166 6.4 11.3 0.00 0.00 0.00 65 1008.9
20260505121519 10 171 6.4 9.7 0.00 0.00 0.00 67 1008.8
20260505120919 10 120 4.8 9.7 0.00 0.00 0.00 65 1008.8
20260505120320 10 161 6.4 12.9 0.00 0.00 0.00 65 1008.8
20260505115719 10 154 9.7 14.5 0.00 0.00 0.00 67 1008.7
20260505115119 9 161 9.7 16.1 0.00 0.00 0.00 68 1008.7
20260505114520 10 134 11.3 17.7 0.00 0.00 0.00 65 1008.7
20260505113919 10 164 12.9 19.3 0.00 0.00 0.00 65 1008.6
20260505113319 10 159 12.9 19.3 0.00 0.00 0.00 63 1008.3
20260505112718 11 162 12.9 17.7 0.00 0.00 0.00 62 1008.3
20260505112120 11 161 4.8 9.7 0.00 0.00 0.00 63 1008.1
20260505111520 11 134 4.8 11.3 0.00 0.00 0.00 62 1008.1
20260505110919 11 150 8.0 11.3 0.00 0.00 0.00 62 1008.1
20260505110320 11 171 4.8 12.9 0.00 0.00 0.00 61 1008.0
20260505102120 12 251 1.6 4.8 0.00 0.00 0.00 58 1007.4
20260505101519 12 253 1.6 4.8 0.00 0.00 0.00 57 1007.4
20260505100919 12 0 0.0 6.4 0.00 0.00 0.00 56 1007.2
20260505100319 12 256 3.2 6.4 0.00 0.00 0.00 56 1007.0
20260505095720 12 260 1.6 6.4 0.00 0.00 0.00 55 1007.0
20260505095120 12 263 3.2 9.7 0.00 0.00 0.00 55 1007.0
20260505094519 13 266 4.8 9.7 0.00 0.00 0.00 54 1006.8
20260505093919 12 268 4.8 6.4 0.00 0.00 0.00 55 1006.8
20260505093319 13 286 1.6 8.0 0.00 0.00 0.00 54 1006.8
20260505092719 13 307 4.8 11.3 0.00 0.00 0.00 54 1006.6
20260505092119 13 286 1.6 11.3 0.00 0.00 0.00 54 1006.5
20260505091519 13 333 3.2 12.9 0.00 0.00 0.00 53 1006.5
20260505090919 13 305 8.0 12.9 0.00 0.00 0.00 54 1006.5
20260505090352 12 345 3.2 6.4 0.00 0.00 0.00 56 1006.5
20260505090320 12 345 3.2 6.4 0.00 0.00 0.00 56 1006.5
20260505085719 13 102 3.2 9.7 0.00 0.00 0.00 54 1006.7
20260505085119 13 0 0.0 9.7 0.00 0.00 0.00 54 1006.8
20260505084519 13 76 4.8 9.7 0.00 0.00 0.00 54 1006.7
20260505083918 13 0 0.0 8.0 0.00 0.00 0.00 54 1006.5
20260505083319 13 330 3.2 6.4 0.00 0.00 0.00 55 1006.2
20260505082720 13 0 0.0 4.8 0.00 0.00 0.00 55 1006.0
20260505082120 12 0 0.0 8.0 0.00 0.00 0.00 56 1006.1
20260505081519 12 320 1.6 8.0 0.00 0.00 0.00 57 1006.0
20260505080919 12 332 3.2 12.9 0.00 0.00 0.00 57 1006.0
20260505080319 12 317 3.2 12.9 0.00 0.00 0.00 57 1006.0
20260505075719 12 248 3.2 6.4 0.00 0.00 0.00 57 1006.0
20260505075118 12 0 0.0 4.8 0.00 0.00 0.00 57 1005.9
20260505074519 13 242 1.6 8.0 0.00 0.00 0.00 55 1006.0
20260505073919 13 253 4.8 8.0 0.00 0.00 0.00 53 1005.8
20260505073320 13 274 4.8 6.4 0.00 0.00 0.00 52 1005.7
20260505072720 14 301 3.2 8.0 0.00 0.00 0.00 52 1005.8
20260505072120 13 284 3.2 8.0 0.00 0.00 0.00 52 1005.6
20260505071519 13 195 3.2 6.4 0.00 0.00 0.00 52 1005.6
20260505070319 14 293 1.6 8.0 0.00 0.00 0.00 50 1005.6
20260505065718 15 295 3.2 11.3 0.00 0.00 0.00 49 1005.3
20260505065119 15 295 6.4 14.5 0.00 0.00 0.00 47 1005.3
20260505064520 15 309 9.7 16.1 0.00 0.00 0.00 47 1005.2
20260505063920 15 315 11.3 16.1 0.00 0.00 0.00 47 1005.2
20260505063319 15 324 9.7 14.5 0.00 0.00 0.00 47 1005.3
20260505062719 15 303 11.3 14.5 0.00 0.00 0.00 47 1005.3
20260505062119 16 297 11.3 16.1 0.00 0.00 0.00 45 1005.4
20260505061518 16 299 11.3 14.5 0.00 0.00 0.00 44 1005.4
20260505060919 16 281 8.0 14.5 0.00 0.00 0.00 45 1005.3
20260505060319 15 198 6.4 14.5 0.00 0.00 0.00 46 1005.2
20260505055719 16 162 9.7 14.5 0.00 0.00 0.00 44 1005.2
20260505055118 16 0 0.0 8.0 0.00 0.00 0.00 42 1005.2
20260505054519 17 345 4.8 16.1 0.00 0.00 0.00 42 1005.2
20260505053319 17 331 9.7 20.9 0.00 0.00 0.00 40 1005.2
20260505052119 17 43 6.4 12.9 0.00 0.00 0.00 41 1005.3
20260505051518 17 346 6.4 14.5 0.00 0.00 0.00 39 1005.2
20260505050919 17 340 8.0 16.1 0.00 0.00 0.00 41 1005.0
20260505050319 17 15 11.3 22.5 0.00 0.00 0.00 39 1005.1
20260505041518 20 339 16.1 22.5 0.00 0.00 0.00 34 1005.0
20260505040919 20 344 16.1 22.5 0.00 0.00 0.00 33 1005.1
20260505040319 20 339 14.5 24.1 0.00 0.00 0.00 33 1005.0
20260505035718 20 336 16.1 24.1 0.00 0.00 0.00 33 1005.0
20260505035119 20 336 17.7 24.1 0.00 0.00 0.00 33 1004.9
20260505034519 20 337 17.7 25.7 0.00 0.00 0.00 33 1004.9
20260505033918 21 334 20.9 27.4 0.00 0.00 0.00 32 1004.8
20260505033319 20 337 20.9 27.4 0.00 0.00 0.00 33 1004.8
20260505032719 20 332 19.3 25.7 0.00 0.00 0.00 33 1004.9
20260505032118 20 329 17.7 22.5 0.00 0.00 0.00 34 1004.7
20260505031518 21 332 17.7 25.7 0.00 0.00 0.00 34 1004.6
20260505030919 21 335 20.9 29.0 0.00 0.00 0.00 33 1004.6
20260505030319 21 330 19.3 29.0 0.00 0.00 0.00 33 1004.5
20260505025718 20 338 19.3 27.4 0.00 0.00 0.00 36 1004.6
20260505025119 21 329 16.1 20.9 0.00 0.00 0.00 36 1004.5
20260505024518 21 334 16.1 24.1 0.00 0.00 0.00 35 1004.5
20260505023919 22 334 14.5 24.1 0.00 0.00 0.00 34 1004.5
20260505023319 22 326 17.7 24.1 0.00 0.00 0.00 32 1004.3
20260505022718 22 326 17.7 25.7 0.00 0.00 0.00 32 1004.3
20260505022119 22 322 16.1 30.6 0.00 0.00 0.00 32 1004.4
20260505021519 23 325 19.3 30.6 0.00 0.00 0.00 31 1004.3
20260505021014 23 325 20.9 32.2 0.00 0.00 0.00 30 1004.4
20260505020919 23 325 20.9 32.2 0.00 0.00 0.00 30 1004.4
20260505020319 23 322 22.5 33.8 0.00 0.00 0.00 29 1004.5
20260505015802 23 320 22.5 32.2 0.00 0.00 0.00 29 1004.4
20260505015719 23 320 22.5 32.2 0.00 0.00 0.00 29 1004.4
20260505015118 23 328 22.5 29.0 0.00 0.00 0.00 28 1004.4
20260505014519 23 327 20.9 32.2 0.00 0.00 0.00 28 1004.4
20260505013919 24 322 24.1 37.0 0.00 0.00 0.00 27 1004.4
20260505013319 24 322 22.5 35.4 0.00 0.00 0.00 26 1004.5
20260505012719 24 315 25.7 35.4 0.00 0.00 0.00 25 1004.5
20260505012119 25 319 22.5 32.2 0.00 0.00 0.00 24 1004.6
20260505011551 25 320 24.1 35.4 0.00 0.00 0.00 23 1004.6
20260505011519 25 320 24.1 35.4 0.00 0.00 0.00 23 1004.6
20260505010918 25 321 24.1 35.4 0.00 0.00 0.00 23 1004.7
20260505010319 25 317 22.5 37.0 0.00 0.00 0.00 22 1004.7
20260505005718 25 323 25.7 37.0 0.00 0.00 0.00 22 1004.8
20260505005119 25 341 22.5 33.8 0.00 0.00 0.00 23 1004.9
20260505004739 25 319 25.7 37.0 0.00 0.00 0.00 21 1004.9
20260505004519 25 319 25.7 37.0 0.00 0.00 0.00 21 1004.9
20260505003918 25 317 25.7 35.4 0.00 0.00 0.00 23 1004.9
20260505003319 25 324 25.7 37.0 0.00 0.00 0.00 22 1004.9
20260505002719 25 323 24.1 37.0 0.00 0.00 0.00 22 1005.1
20260505002118 25 320 24.1 37.0 0.00 0.00 0.00 22 1005.0
20260505001519 25 317 24.1 35.4 0.00 0.00 0.00 24 1005.1
20260505000919 25 329 24.1 37.0 0.00 0.00 0.00 25 1005.1
20260505000318 25 321 27.4 33.8 0.00 0.00 0.00 25 1005.2
20260504235719 25 328 24.1 32.2 0.00 0.00 0.00 26 1005.3
20260504235119 25 317 19.3 33.8 0.00 0.00 0.00 25 1005.2
20260504234518 25 333 24.1 33.8 0.00 0.00 0.00 26 1005.4
20260504233919 25 335 19.3 35.4 0.00 0.00 0.00 28 1005.5
20260504233319 25 337 22.5 35.4 0.00 0.00 0.00 27 1005.5
20260504232718 25 322 20.9 33.8 0.00 0.00 0.00 27 1005.6
20260504232119 25 316 24.1 33.8 0.00 0.00 0.00 26 1005.7
20260504231519 25 323 20.9 29.0 0.00 0.00 0.00 27 1005.8
20260504230918 25 331 17.7 25.7 0.00 0.00 0.00 28 1005.8
20260504230319 25 352 17.7 25.7 0.00 0.00 0.00 27 1005.9
20260504225718 25 315 11.3 30.6 0.00 0.00 0.00 30 1006.0
20260504225119 25 299 22.5 29.0 0.00 0.00 0.00 28 1006.0
20260504224554 24 327 14.5 30.6 0.00 0.00 0.00 27 1006.0
20260504224519 24 327 14.5 30.6 0.00 0.00 0.00 27 1006.0
20260504223918 25 322 16.1 25.7 0.00 0.00 0.00 27 1006.1
20260504223403 24 319 17.7 27.4 0.00 0.00 0.00 28 1006.3
20260504223319 24 319 17.7 27.4 0.00 0.00 0.00 28 1006.3
20260504222718 24 329 22.5 41.8 0.00 0.00 0.00 28 1006.3
20260504222118 24 318 22.5 41.8 0.00 0.00 0.00 31 1006.5
20260504221519 24 305 14.5 30.6 0.00 0.00 0.00 30 1006.6
20260504220918 23 347 22.5 30.6 0.00 0.00 0.00 27 1006.8
20260504220318 23 296 16.1 32.2 0.00 0.00 0.00 28 1006.9
20260504215719 23 304 22.5 32.2 0.00 0.00 0.00 27 1007.0
20260504215118 23 320 11.3 25.7 0.00 0.00 0.00 29 1006.9
20260504214519 23 318 16.1 27.4 0.00 0.00 0.00 29 1007.1
20260504213919 23 298 22.5 27.4 0.00 0.00 0.00 30 1007.0
20260504213318 23 332 17.7 29.0 0.00 0.00 0.00 29 1007.3
20260504212718 23 308 20.9 29.0 0.00 0.00 0.00 32 1007.4
20260504212119 23 308 14.5 27.4 0.00 0.00 0.00 32 1007.4
20260504211518 23 334 19.3 29.0 0.00 0.00 0.00 28 1007.5
20260504210918 23 340 20.9 29.0 0.00 0.00 0.00 29 1007.7
20260504210319 23 325 12.9 30.6 0.00 0.00 0.00 33 1007.7
20260504205718 23 333 19.3 30.6 0.00 0.00 0.00 32 1007.8
20260504205118 23 310 19.3 29.0 0.00 0.00 0.00 32 1007.9
20260504204518 22 311 14.5 29.0 0.00 0.00 0.00 30 1008.0
20260504203918 22 322 17.7 29.0 0.00 0.00 0.00 34 1008.1
20260504203319 22 329 17.7 30.6 0.00 0.00 0.00 31 1008.2
20260504202718 22 311 20.9 30.6 0.00 0.00 0.00 31 1008.1
20260504202118 22 297 14.5 25.7 0.00 0.00 0.00 33 1008.1
20260504201559 22 322 19.3 25.7 0.00 0.00 0.00 32 1008.3
20260504201519 22 322 19.3 25.7 0.00 0.00 0.00 32 1008.3
20260504200918 22 334 12.9 22.5 0.00 0.00 0.00 35 1008.3
20260504200318 22 327 16.1 27.4 0.00 0.00 0.00 33 1008.4
20260504195719 22 317 19.3 38.6 0.00 0.00 0.00 34 1008.6
20260504195118 22 296 11.3 29.0 0.00 0.00 0.00 38 1008.5
20260504194518 21 320 19.3 29.0 0.00 0.00 0.00 35 1008.5
20260504193918 21 332 14.5 29.0 0.00 0.00 0.00 36 1008.4
20260504193318 21 305 17.7 27.4 0.00 0.00 0.00 37 1008.6
20260504192718 21 305 19.3 29.0 0.00 0.00 0.00 37 1008.6
20260504192118 21 295 19.3 29.0 0.00 0.00 0.00 38 1008.6
20260504191519 21 299 16.1 29.0 0.00 0.00 0.00 37 1008.7
20260504190918 21 294 17.7 29.0 0.00 0.00 0.00 40 1008.8
20260504190318 21 324 19.3 29.0 0.00 0.00 0.00 38 1008.7
20260504185718 21 304 17.7 30.6 0.00 0.00 0.00 39 1008.9
20260504185119 20 298 16.1 29.0 0.00 0.00 0.00 40 1008.9
20260504184518 20 320 19.3 29.0 0.00 0.00 0.00 43 1008.9
20260504183918 20 303 20.9 29.0 0.00 0.00 0.00 41 1009.1
20260504183319 20 293 14.5 25.7 0.00 0.00 0.00 43 1009.1
20260504182718 20 288 14.5 25.7 0.00 0.00 0.00 45 1009.2
20260504182118 20 278 14.5 22.5 0.00 0.00 0.00 44 1009.3
20260504181518 19 273 16.1 22.5 0.00 0.00 0.00 45 1009.4
20260504180919 19 298 16.1 24.1 0.00 0.00 0.00 43 1009.4
20260504180317 19 326 11.3 24.1 0.00 0.00 0.00 45 1009.3
20260504175718 18 293 14.5 25.7 0.00 0.00 0.00 44 1009.5
20260504175118 18 278 12.9 22.5 0.00 0.00 0.00 44 1009.5
20260504174517 18 300 16.1 22.5 0.00 0.00 0.00 46 1009.6
20260504173918 18 309 12.9 22.5 0.00 0.00 0.00 45 1009.7
20260504173318 18 296 14.5 22.5 0.00 0.00 0.00 46 1009.6
20260504172718 18 299 9.7 19.3 0.00 0.00 0.00 46 1009.6
20260504172118 18 293 12.9 20.9 0.00 0.00 0.00 46 1009.5
20260504171517 18 303 12.9 19.3 0.00 0.00 0.00 46 1009.3
20260504170918 17 327 9.7 20.9 0.00 0.00 0.00 48 1009.5
20260504170318 17 339 14.5 20.9 0.00 0.00 0.00 47 1009.6
20260504160318 16 289 14.5 19.3 0.00 0.00 0.00 52 1009.8
20260504150318 14 310 1.6 4.8 0.00 0.00 0.00 57 1009.4
20260504140317 12 0 0.0 0.0 0.00 0.00 0.00 65 1009.2